User: anonymous   Login
Location: Newark
(41.9000°N, 12.4833°E)
Time: 14:10:05
(UTC+00:00)
Language:

AO-7 - Orbit

View from above orbital plane
View from above orbital plane
View from above satellite
View from above satellite

Ground track
Ground track

The orbit data is extracted from the following two-line orbital elements,

1  7530U 74089B   19316.93000458 -.00000045 +00000-0 +27343-5 0  9996
2  7530 101.7665 283.1875 0012502 063.1269 313.5910 12.53640774058738
Epoch (UTC): 12 November 2019 22:19:12
Eccentricity: 0.0012502
inclination: 101.7665°
perigee height: 1439 km
apogee height: 1459 km
right ascension of ascending node: 283.1875°
argument of perigee: 63.1269°
revolutions per day: 12.53640774
mean anomaly at epoch: 313.5910°
orbit number at epoch: 5873

The dashed part of the orbit path shows where the satellite is in the earth's shadow,  

DLR